Volver al catálogo

STARLINK-35697

ActivoComunicacionesVLEO
NORAD 66539·PAYLOAD·🇺🇸 United States

Lanzado Nov 19, 2025 desde Cape Canaveral Space Force Station

Loading…

Próximos Pases (próximas 24 horas)

TLE

ActualizadoSource: CelesTrak SupGP

Época: Sep 15, 2026, 02:45 UTC

1 66539C 25265Z   26258.11506944  .00013424  00000+0  48620-3 0  2586
2 66539  42.9998 288.0464 0001369 262.2732 141.5312 15.27572789    18

Sigue STARLINK-35697 en tiempo real con AllMySat

Download on the App Store